QTR6AA OTHH-OPKC

Flight info

Callsign QTR6AA
Flight time 1h 57m
Altitude 35000
Route KUPRO N300 NOLSU P307 TONVO A777 NADSO B524 ALPOR G216 LAKIV
Aircraft B77W/H-SDE1E2E3FGHIJ2J3J4J5M1RWXY/LB1D1

Departure

Time 2026-05-06 11:24
Airport Hamad International Airport (OTHH)

Arrival

Time 2026-05-06 13:21
Airport Jinnah International Airport (OPKC)
Time Latitude Longitude Altitude Speed Heading
2026-05-06 11:03 25.26591 51.61033 35 ft 0 kts 68°
2026-05-06 11:13 25.26585 51.61016 33 ft 4 kts 68°
2026-05-06 11:13 25.26575 51.60989 56 ft 4 kts 59°
2026-05-06 11:13 25.26558 51.60967 32 ft 4 kts 32°
2026-05-06 11:13 25.26534 51.60958 32 ft 4 kts 353°
2026-05-06 11:14 25.26523 51.60960 33 ft 0 kts 338°
2026-05-06 11:15 25.26531 51.60956 32 ft 10 kts 334°
2026-05-06 11:15 25.26617 51.60818 35 ft 27 kts 294°
2026-05-06 11:16 25.26688 51.60631 35 ft 27 kts 293°
2026-05-06 11:16 25.26655 51.60512 35 ft 16 kts 246°
2026-05-06 11:16 25.26623 51.60402 34 ft 9 kts 289°
2026-05-06 11:16 25.26715 51.60336 34 ft 26 kts 338°
2026-05-06 11:17 25.26886 51.60259 34 ft 27 kts 337°
2026-05-06 11:17 25.27027 51.60159 34 ft 22 kts 290°
2026-05-06 11:17 25.27154 51.60034 33 ft 29 kts 338°
2026-05-06 11:17 25.27341 51.59950 34 ft 29 kts 338°
2026-05-06 11:18 25.27531 51.59868 34 ft 29 kts 339°
2026-05-06 11:18 25.27721 51.59786 33 ft 29 kts 337°
2026-05-06 11:18 25.27910 51.59702 34 ft 29 kts 338°
2026-05-06 11:18 25.28100 51.59620 34 ft 29 kts 339°
2026-05-06 11:19 25.28289 51.59535 34 ft 29 kts 337°
2026-05-06 11:19 25.28414 51.59478 34 ft 29 kts 338°
2026-05-06 11:19 25.28586 51.59375 34 ft 25 kts 294°
2026-05-06 11:19 25.28535 51.59177 32 ft 34 kts 249°
2026-05-06 11:20 25.28371 51.59070 34 ft 21 kts 159°
2026-05-06 11:20 25.28223 51.59132 34 ft 23 kts 159°
2026-05-06 11:20 25.28074 51.59198 34 ft 23 kts 158°
2026-05-06 11:20 25.27925 51.59264 34 ft 23 kts 158°
2026-05-06 11:21 25.27826 51.59309 33 ft 23 kts 158°
2026-05-06 11:21 25.27670 51.59378 33 ft 30 kts 158°
2026-05-06 11:21 25.27377 51.59507 33 ft 57 kts 158°
2026-05-06 11:21 25.27022 51.59665 34 ft 43 kts 160°
2026-05-06 11:22 25.26665 51.59821 34 ft 40 kts 158°
2026-05-06 11:22 25.26493 51.59899 34 ft 39 kts 157°
2026-05-06 11:22 25.26163 51.60042 34 ft 38 kts 158°
2026-05-06 11:22 25.26019 51.60123 34 ft 26 kts 124°
2026-05-06 11:23 25.26077 51.60288 34 ft 27 kts 20°
2026-05-06 11:23 25.26319 51.60200 32 ft 49 kts 338°
2026-05-06 11:23 25.26896 51.59944 30 ft 143 kts 338°
2026-05-06 11:23 25.28124 51.59396 156 ft 224 kts 340°
2026-05-06 11:24 25.29574 51.58751 1324 ft 229 kts 340°
2026-05-06 11:24 25.31066 51.58102 2636 ft 232 kts 340°
2026-05-06 11:24 25.32601 51.57436 3846 ft 240 kts 341°
2026-05-06 11:24 25.34217 51.56974 5061 ft 242 kts 360°
2026-05-06 11:25 25.35869 51.57239 6307 ft 247 kts 19°
2026-05-06 11:25 25.37396 51.58138 7523 ft 254 kts 39°
2026-05-06 11:25 25.38724 51.59424 8714 ft 257 kts 41°
2026-05-06 11:25 25.39875 51.61019 9150 ft 282 kts 68°
2026-05-06 11:26 25.40085 51.63213 9805 ft 298 kts 99°
2026-05-06 11:26 25.39461 51.65446 10433 ft 315 kts 111°
2026-05-06 11:26 25.38578 51.67791 10672 ft 346 kts 112°
2026-05-06 11:26 25.37617 51.70361 10887 ft 376 kts 111°
2026-05-06 11:27 25.36676 51.73088 11487 ft 390 kts 109°
2026-05-06 11:27 25.35773 51.75940 12358 ft 396 kts 108°
2026-05-06 11:27 25.34916 51.78853 13314 ft 401 kts 107°
2026-05-06 11:27 25.34087 51.81815 14180 ft 406 kts 106°
2026-05-06 11:28 25.33274 51.84813 15076 ft 409 kts 106°
2026-05-06 11:28 25.32469 51.87835 15958 ft 413 kts 106°
2026-05-06 11:28 25.31657 51.90900 16776 ft 418 kts 106°
2026-05-06 11:28 25.30835 51.94009 17597 ft 424 kts 106°
2026-05-06 11:29 25.30005 51.97146 18415 ft 427 kts 106°
2026-05-06 11:29 25.29175 52.00274 19093 ft 433 kts 107°
2026-05-06 11:29 25.28317 52.03499 19689 ft 441 kts 107°
2026-05-06 11:29 25.27440 52.06771 20329 ft 447 kts 107°
2026-05-06 11:30 25.26549 52.10086 20974 ft 453 kts 107°
2026-05-06 11:30 25.25644 52.13446 21587 ft 460 kts 107°
2026-05-06 11:30 25.24723 52.16861 22175 ft 467 kts 107°
2026-05-06 11:30 25.23791 52.20320 22762 ft 473 kts 107°
2026-05-06 11:31 25.22845 52.23828 23341 ft 479 kts 107°
2026-05-06 11:31 25.21887 52.27376 23819 ft 485 kts 107°
2026-05-06 11:31 25.20917 52.30966 24327 ft 489 kts 107°
2026-05-06 11:31 25.19943 52.34571 24857 ft 492 kts 108°
2026-05-06 11:32 25.18958 52.38209 25346 ft 497 kts 108°
2026-05-06 11:32 25.17964 52.41879 25812 ft 501 kts 108°
2026-05-06 11:32 25.16959 52.45584 26282 ft 506 kts 108°
2026-05-06 11:32 25.15944 52.49321 26737 ft 510 kts 108°
2026-05-06 11:33 25.14931 52.53049 27186 ft 514 kts 109°
2026-05-06 11:33 25.13898 52.56843 27626 ft 518 kts 109°
2026-05-06 11:33 25.12855 52.60670 28051 ft 522 kts 109°
2026-05-06 11:33 25.11804 52.64525 28460 ft 526 kts 109°
2026-05-06 11:34 25.10744 52.68408 28846 ft 530 kts 109°
2026-05-06 11:34 25.09676 52.72316 29213 ft 534 kts 109°
2026-05-06 11:34 25.08601 52.76245 29575 ft 537 kts 109°
2026-05-06 11:34 25.07517 52.80200 29926 ft 540 kts 109°
2026-05-06 11:35 25.06430 52.84168 30300 ft 540 kts 109°
2026-05-06 11:35 25.05343 52.88132 30764 ft 538 kts 109°
2026-05-06 11:35 25.04258 52.92081 31257 ft 537 kts 109°
2026-05-06 11:35 25.03177 52.96014 31717 ft 536 kts 109°
2026-05-06 11:36 25.02094 52.99944 32126 ft 536 kts 109°
2026-05-06 11:36 25.01008 53.03880 32590 ft 535 kts 109°
2026-05-06 11:36 24.99927 53.07796 33076 ft 534 kts 109°
2026-05-06 11:36 24.98844 53.11713 33542 ft 534 kts 109°
2026-05-06 11:37 24.97773 53.15581 33930 ft 534 kts 109°
2026-05-06 11:37 24.96688 53.19497 34307 ft 533 kts 109°
2026-05-06 11:37 24.95606 53.23400 34706 ft 532 kts 109°
2026-05-06 11:38 24.93425 53.31249 34783 ft 535 kts 109°
2026-05-06 11:38 24.91259 53.39036 34775 ft 529 kts 109°
2026-05-06 11:39 24.89117 53.46783 34785 ft 528 kts 109°
2026-05-06 11:39 24.87009 53.54548 34785 ft 529 kts 109°
2026-05-06 11:40 24.84899 53.62307 34779 ft 529 kts 109°
2026-05-06 11:40 24.82791 53.70019 34779 ft 530 kts 109°
2026-05-06 11:41 24.80658 53.77793 34762 ft 530 kts 109°
2026-05-06 11:41 24.78523 53.85565 34770 ft 530 kts 109°
2026-05-06 11:42 24.76391 53.93340 34768 ft 529 kts 107°
2026-05-06 11:42 24.75695 53.97326 34753 ft 532 kts 96°
2026-05-06 11:42 24.75626 54.01393 34765 ft 533 kts 86°
2026-05-06 11:43 24.77094 54.09340 34771 ft 530 kts 71°
2026-05-06 11:43 24.79435 54.17051 34768 ft 532 kts 70°
2026-05-06 11:44 24.82810 54.28704 34763 ft 534 kts 71°
2026-05-06 11:44 24.85002 54.36515 34767 ft 534 kts 71°
2026-05-06 11:45 24.87193 54.44267 34764 ft 534 kts 71°
2026-05-06 11:45 24.89414 54.52076 34766 ft 533 kts 71°
2026-05-06 11:46 24.91629 54.59888 34765 ft 533 kts 71°
2026-05-06 11:46 24.93686 54.67737 34764 ft 533 kts 77°
2026-05-06 11:47 24.95155 54.75746 34771 ft 533 kts 78°
2026-05-06 11:47 24.96635 54.83688 34768 ft 533 kts 77°
2026-05-06 11:48 24.98148 54.91687 34773 ft 533 kts 77°
2026-05-06 11:48 24.99652 54.99710 34773 ft 533 kts 77°
2026-05-06 11:49 25.01146 55.07721 34769 ft 534 kts 77°
2026-05-06 11:49 25.02640 55.15745 34775 ft 534 kts 77°
2026-05-06 11:50 25.04137 55.23759 34773 ft 534 kts 77°
2026-05-06 11:50 25.05655 55.31765 34758 ft 534 kts 77°
2026-05-06 11:51 25.07173 55.39796 34750 ft 534 kts 77°
2026-05-06 11:51 25.08670 55.47761 34753 ft 534 kts 77°
2026-05-06 11:52 25.10174 55.55793 34755 ft 534 kts 77°
2026-05-06 11:52 25.11647 55.63825 34760 ft 534 kts 77°
2026-05-06 11:53 25.13102 55.71857 34762 ft 533 kts 77°
2026-05-06 11:53 25.14584 55.79875 34779 ft 533 kts 76°
2026-05-06 11:54 25.16226 55.87851 34777 ft 533 kts 76°
2026-05-06 11:54 25.17881 55.95817 34786 ft 533 kts 76°
2026-05-06 11:55 25.19503 56.03807 34791 ft 533 kts 76°
2026-05-06 11:55 25.20397 56.11903 34792 ft 533 kts 92°
2026-05-06 11:56 25.19198 56.19894 34787 ft 531 kts 110°
2026-05-06 11:56 25.16658 56.27527 34807 ft 529 kts 112°
2026-05-06 11:57 25.14115 56.35158 34802 ft 530 kts 111°
2026-05-06 11:57 25.11650 56.42845 34803 ft 531 kts 111°
2026-05-06 11:58 25.09189 56.50540 34804 ft 531 kts 111°
2026-05-06 11:58 25.07219 56.58394 34810 ft 532 kts 102°
2026-05-06 11:59 25.05767 56.66421 34797 ft 533 kts 102°
2026-05-06 11:59 25.04309 56.74390 34788 ft 533 kts 102°
2026-05-06 12:00 25.02790 56.82396 34790 ft 532 kts 102°
2026-05-06 12:00 25.01260 56.90379 34790 ft 532 kts 102°
2026-05-06 12:01 24.99734 56.98357 34793 ft 532 kts 102°
2026-05-06 12:01 24.98199 57.06333 34788 ft 532 kts 102°
2026-05-06 12:02 24.96666 57.14246 34794 ft 532 kts 102°
2026-05-06 12:02 24.95118 57.22221 34790 ft 532 kts 102°
2026-05-06 12:03 24.93568 57.30190 34789 ft 531 kts 102°
2026-05-06 12:03 24.92013 57.38161 34787 ft 531 kts 102°
2026-05-06 12:04 24.90457 57.46115 34787 ft 531 kts 102°
2026-05-06 12:04 24.88894 57.54078 34791 ft 531 kts 102°
2026-05-06 12:05 24.87331 57.62020 34787 ft 531 kts 102°
2026-05-06 12:05 24.85771 57.69923 34789 ft 531 kts 102°
2026-05-06 12:06 24.84197 57.77875 34790 ft 531 kts 102°
2026-05-06 12:06 24.82613 57.85829 34779 ft 531 kts 103°
2026-05-06 12:07 24.80999 57.93757 34790 ft 531 kts 103°
2026-05-06 12:07 24.79376 58.01679 34784 ft 530 kts 103°
2026-05-06 12:08 24.77753 58.09601 34788 ft 530 kts 103°
2026-05-06 12:08 24.76131 58.17511 34788 ft 530 kts 103°
2026-05-06 12:09 24.74506 58.25415 34788 ft 530 kts 103°
2026-05-06 12:09 24.72885 58.33278 34788 ft 530 kts 103°
2026-05-06 12:10 24.71249 58.41192 34791 ft 530 kts 103°
2026-05-06 12:10 24.69607 58.49107 34787 ft 530 kts 103°
2026-05-06 12:11 24.67962 58.57017 34788 ft 531 kts 103°
2026-05-06 12:11 24.66320 58.64890 34788 ft 531 kts 103°
2026-05-06 12:12 24.64665 58.72807 34790 ft 531 kts 103°
2026-05-06 12:12 24.63006 58.80721 34794 ft 531 kts 103°
2026-05-06 12:13 24.61341 58.88637 34790 ft 531 kts 103°
2026-05-06 12:13 24.59675 58.96540 34790 ft 531 kts 103°
2026-05-06 12:14 24.58015 59.04394 34792 ft 531 kts 103°
2026-05-06 12:14 24.56339 59.12304 34794 ft 530 kts 103°
2026-05-06 12:15 24.54666 59.20180 34789 ft 529 kts 103°
2026-05-06 12:15 24.53272 59.26729 34791 ft 529 kts 103°
2026-05-06 12:16 24.51604 59.34578 34793 ft 528 kts 103°
2026-05-06 12:16 24.49931 59.42437 34791 ft 528 kts 103°
2026-05-06 12:17 24.48254 59.50291 34791 ft 528 kts 103°
2026-05-06 12:17 24.46582 59.58098 34792 ft 528 kts 103°
2026-05-06 12:18 24.44896 59.65952 34791 ft 529 kts 103°
2026-05-06 12:18 24.43205 59.73805 34799 ft 528 kts 103°
2026-05-06 12:19 24.41513 59.81644 34788 ft 528 kts 103°
2026-05-06 12:19 24.39816 59.89485 34789 ft 528 kts 103°
2026-05-06 12:20 24.38116 59.97317 34804 ft 527 kts 103°
2026-05-06 12:20 24.36416 60.05139 34795 ft 527 kts 103°
2026-05-06 12:21 24.34708 60.12964 34788 ft 527 kts 103°
2026-05-06 12:21 24.32988 60.20781 34794 ft 528 kts 103°
2026-05-06 12:22 24.31263 60.28605 34793 ft 528 kts 103°
2026-05-06 12:22 24.29535 60.36427 34802 ft 527 kts 103°
2026-05-06 12:23 24.27815 60.44196 34788 ft 527 kts 103°
2026-05-06 12:23 24.26084 60.51997 34789 ft 527 kts 103°
2026-05-06 12:24 24.24348 60.59799 34790 ft 527 kts 103°
2026-05-06 12:24 24.22611 60.67592 34802 ft 526 kts 103°
2026-05-06 12:25 24.20867 60.75391 34806 ft 526 kts 103°
2026-05-06 12:25 24.19119 60.83191 34795 ft 527 kts 103°
2026-05-06 12:26 24.17381 60.90936 34799 ft 527 kts 103°
2026-05-06 12:26 24.15625 60.98741 34799 ft 527 kts 103°
2026-05-06 12:27 24.13886 61.06453 34788 ft 527 kts 103°
2026-05-06 12:27 24.12126 61.14240 34801 ft 527 kts 103°
2026-05-06 12:28 24.10365 61.22016 34797 ft 526 kts 103°
2026-05-06 12:28 24.08768 61.29771 34789 ft 525 kts 97°
2026-05-06 12:29 24.08491 61.37728 34805 ft 523 kts 85°
2026-05-06 12:29 24.09497 61.45581 34804 ft 521 kts 78°
2026-05-06 12:30 24.10743 61.53400 34804 ft 522 kts 78°
2026-05-06 12:30 24.11919 61.61187 34792 ft 523 kts 78°
2026-05-06 12:31 24.13065 61.69047 34804 ft 523 kts 79°
2026-05-06 12:31 24.14209 61.76912 34805 ft 523 kts 79°
2026-05-06 12:32 24.15331 61.84779 34802 ft 523 kts 79°
2026-05-06 12:32 24.16389 61.92609 34799 ft 523 kts 79°
2026-05-06 12:33 24.18519 62.08508 34798 ft 523 kts 79°
2026-05-06 12:34 24.19571 62.16332 34801 ft 523 kts 79°
2026-05-06 12:34 24.20626 62.24213 34792 ft 523 kts 79°
2026-05-06 12:35 24.21678 62.32096 34796 ft 523 kts 79°
2026-05-06 12:35 24.22724 62.39978 34796 ft 523 kts 79°
2026-05-06 12:36 24.23767 62.47863 34788 ft 523 kts 79°
2026-05-06 12:36 24.24798 62.55696 34791 ft 523 kts 79°
2026-05-06 12:37 24.25833 62.63591 34793 ft 523 kts 79°
2026-05-06 12:37 24.26865 62.71490 34789 ft 524 kts 79°
2026-05-06 12:38 24.27893 62.79393 34789 ft 524 kts 79°
2026-05-06 12:38 24.28910 62.87247 34788 ft 524 kts 79°
2026-05-06 12:39 24.29931 62.95158 34792 ft 524 kts 79°
2026-05-06 12:39 24.30948 63.03076 34789 ft 525 kts 79°
2026-05-06 12:40 24.31962 63.10996 34787 ft 525 kts 79°
2026-05-06 12:40 24.32964 63.18863 34784 ft 524 kts 79°
2026-05-06 12:41 24.33968 63.26779 34790 ft 524 kts 80°
2026-05-06 12:41 24.34967 63.34690 34786 ft 524 kts 80°
2026-05-06 12:42 24.35961 63.42597 34783 ft 523 kts 80°
2026-05-06 12:42 24.36951 63.50500 34787 ft 523 kts 80°
2026-05-06 12:43 24.37931 63.58359 34792 ft 523 kts 80°
2026-05-06 12:43 24.38913 63.66269 34784 ft 524 kts 80°
2026-05-06 12:44 24.39892 63.74185 34792 ft 524 kts 80°
2026-05-06 12:44 24.40867 63.82108 34787 ft 524 kts 80°
2026-05-06 12:45 24.41833 63.89985 34781 ft 524 kts 80°
2026-05-06 12:46 24.43283 64.01883 34783 ft 525 kts 80°
2026-05-06 12:46 24.44244 64.09820 34786 ft 525 kts 80°
2026-05-06 12:47 24.45196 64.17709 34786 ft 525 kts 80°
2026-05-06 12:47 24.46151 64.25653 34779 ft 525 kts 80°
2026-05-06 12:48 24.47102 64.33606 34775 ft 525 kts 80°
2026-05-06 12:48 24.48048 64.41559 34779 ft 525 kts 80°
2026-05-06 12:49 24.48990 64.49509 34775 ft 526 kts 80°
2026-05-06 12:49 24.49925 64.57426 34515 ft 528 kts 80°
2026-05-06 12:49 24.50394 64.61419 34185 ft 526 kts 80°
2026-05-06 12:50 24.50857 64.65380 33840 ft 521 kts 79°
2026-05-06 12:50 24.51315 64.69304 33468 ft 515 kts 79°
2026-05-06 12:50 24.51768 64.73185 33093 ft 511 kts 79°
2026-05-06 12:50 24.52218 64.77038 32718 ft 507 kts 79°
2026-05-06 12:51 24.52663 64.80861 32341 ft 503 kts 79°
2026-05-06 12:51 24.53093 64.84658 31975 ft 499 kts 80°
2026-05-06 12:51 24.53435 64.88393 31620 ft 497 kts 81°
2026-05-06 12:51 24.53722 64.92159 31263 ft 494 kts 82°
2026-05-06 12:52 24.53987 64.95910 30909 ft 492 kts 82°
2026-05-06 12:52 24.54250 64.99646 30582 ft 489 kts 82°
2026-05-06 12:52 24.54519 65.03363 30244 ft 487 kts 81°
2026-05-06 12:52 24.54795 65.07062 29905 ft 485 kts 81°
2026-05-06 12:53 24.55076 65.10749 29517 ft 484 kts 81°
2026-05-06 12:53 24.55359 65.14422 29129 ft 482 kts 81°
2026-05-06 12:53 24.55639 65.18034 28749 ft 480 kts 81°
2026-05-06 12:53 24.55920 65.21675 28366 ft 478 kts 81°
2026-05-06 12:54 24.56199 65.25307 27990 ft 476 kts 81°
2026-05-06 12:54 24.56476 65.28918 27619 ft 473 kts 81°
2026-05-06 12:54 24.56749 65.32511 27254 ft 471 kts 81°
2026-05-06 12:54 24.57020 65.36081 26888 ft 468 kts 81°
2026-05-06 12:55 24.57288 65.39633 26533 ft 464 kts 81°
2026-05-06 12:55 24.57553 65.43154 26172 ft 461 kts 81°
2026-05-06 12:55 24.57815 65.46651 25792 ft 458 kts 81°
2026-05-06 12:55 24.58072 65.50074 25433 ft 454 kts 81°
2026-05-06 12:56 24.58329 65.53523 25064 ft 451 kts 81°
2026-05-06 12:56 24.58584 65.56945 24705 ft 448 kts 81°
2026-05-06 12:56 24.58836 65.60339 24354 ft 444 kts 81°
2026-05-06 12:56 24.59085 65.63707 24003 ft 441 kts 81°
2026-05-06 12:57 24.59332 65.67054 23659 ft 438 kts 81°
2026-05-06 12:57 24.59576 65.70373 23300 ft 435 kts 81°
2026-05-06 12:57 24.59818 65.73672 22891 ft 432 kts 81°
2026-05-06 12:57 24.60056 65.76911 22480 ft 429 kts 81°
2026-05-06 12:58 24.60293 65.80166 22074 ft 426 kts 81°
2026-05-06 12:58 24.60528 65.83399 21688 ft 422 kts 81°
2026-05-06 12:58 24.60760 65.86601 21319 ft 419 kts 81°
2026-05-06 12:58 24.60989 65.89774 20948 ft 415 kts 81°
2026-05-06 12:59 24.61216 65.92921 20614 ft 411 kts 81°
2026-05-06 12:59 24.61440 65.96038 20274 ft 407 kts 81°
2026-05-06 12:59 24.61660 65.99118 19940 ft 403 kts 82°
2026-05-06 12:59 24.61879 66.02176 19621 ft 399 kts 82°
2026-05-06 13:00 24.62092 66.05164 19290 ft 396 kts 82°
2026-05-06 13:00 24.62305 66.08168 18967 ft 393 kts 82°
2026-05-06 13:00 24.62517 66.11152 18663 ft 390 kts 82°
2026-05-06 13:00 24.62726 66.14109 18342 ft 387 kts 82°
2026-05-06 13:01 24.62934 66.17050 18024 ft 384 kts 82°
2026-05-06 13:01 24.63138 66.19968 17676 ft 382 kts 82°
2026-05-06 13:01 24.63342 66.22871 17313 ft 379 kts 82°
2026-05-06 13:01 24.63542 66.25749 16999 ft 376 kts 82°
2026-05-06 13:02 24.63738 66.28566 16675 ft 373 kts 82°
2026-05-06 13:02 24.63935 66.31399 16363 ft 371 kts 82°
2026-05-06 13:02 24.64131 66.34217 16035 ft 368 kts 82°
2026-05-06 13:02 24.64324 66.37011 15716 ft 366 kts 82°
2026-05-06 13:03 24.64516 66.39793 15403 ft 363 kts 82°
2026-05-06 13:03 24.64705 66.42551 15095 ft 361 kts 82°
2026-05-06 13:03 24.64894 66.45298 14770 ft 360 kts 82°
2026-05-06 13:03 24.65081 66.48035 14446 ft 358 kts 82°
2026-05-06 13:04 24.65267 66.50761 14121 ft 357 kts 82°
2026-05-06 13:04 24.65452 66.53475 13801 ft 355 kts 82°
2026-05-06 13:04 24.65632 66.56138 13476 ft 354 kts 82°
2026-05-06 13:04 24.65815 66.58827 13133 ft 352 kts 82°
2026-05-06 13:05 24.65996 66.61502 12778 ft 350 kts 82°
2026-05-06 13:05 24.66175 66.64161 12423 ft 348 kts 82°
2026-05-06 13:05 24.66353 66.66809 12077 ft 346 kts 82°
2026-05-06 13:05 24.66530 66.69442 11740 ft 345 kts 82°
2026-05-06 13:06 24.66705 66.72062 11414 ft 342 kts 82°
2026-05-06 13:06 24.66879 66.74664 11105 ft 340 kts 83°
2026-05-06 13:06 24.67049 66.77213 10805 ft 338 kts 83°
2026-05-06 13:06 24.67220 66.79785 10499 ft 336 kts 83°
2026-05-06 13:07 24.67389 66.82337 10198 ft 333 kts 83°
2026-05-06 13:07 24.67556 66.84862 9888 ft 329 kts 83°
2026-05-06 13:07 24.67720 66.87355 9592 ft 325 kts 83°
2026-05-06 13:07 24.67882 66.89814 9258 ft 321 kts 83°
2026-05-06 13:08 24.68043 66.92245 8929 ft 317 kts 84°
2026-05-06 13:08 24.68200 66.94650 8603 ft 314 kts 83°
2026-05-06 13:08 24.68354 66.96999 8292 ft 311 kts 83°
2026-05-06 13:08 24.68508 66.99356 7984 ft 307 kts 84°
2026-05-06 13:09 24.68659 67.01689 7694 ft 304 kts 83°
2026-05-06 13:09 24.68823 67.03990 7392 ft 297 kts 79°
2026-05-06 13:09 24.69464 67.06082 7070 ft 283 kts 57°
2026-05-06 13:09 24.70486 67.07905 6814 ft 279 kts 55°
2026-05-06 13:10 24.71491 67.09722 6540 ft 277 kts 56°
2026-05-06 13:10 24.72482 67.11529 6270 ft 275 kts 56°
2026-05-06 13:10 24.73464 67.13328 6024 ft 273 kts 56°
2026-05-06 13:10 24.74418 67.15083 5776 ft 270 kts 56°
2026-05-06 13:11 24.75375 67.16845 5538 ft 267 kts 57°
2026-05-06 13:11 24.76323 67.18595 5289 ft 265 kts 57°
2026-05-06 13:11 24.77261 67.20329 5030 ft 263 kts 57°
2026-05-06 13:11 24.78189 67.22047 4782 ft 260 kts 57°
2026-05-06 13:12 24.79108 67.23749 4542 ft 258 kts 58°
2026-05-06 13:12 24.80017 67.25434 4294 ft 254 kts 58°
2026-05-06 13:12 24.80913 67.27096 4026 ft 251 kts 58°
2026-05-06 13:12 24.81797 67.28735 3782 ft 247 kts 59°
2026-05-06 13:13 24.82655 67.30328 3546 ft 243 kts 59°
2026-05-06 13:13 24.83512 67.31918 3335 ft 239 kts 59°
2026-05-06 13:13 24.84345 67.33465 3148 ft 232 kts 59°
2026-05-06 13:13 24.85157 67.34972 3060 ft 227 kts 60°
2026-05-06 13:14 24.85957 67.36459 3024 ft 225 kts 60°
2026-05-06 13:14 24.86755 67.37942 3003 ft 224 kts 59°
2026-05-06 13:14 24.87774 67.39206 2978 ft 224 kts 27°
2026-05-06 13:14 24.89245 67.39585 2991 ft 217 kts 348°
2026-05-06 13:15 24.90696 67.39218 3019 ft 216 kts 340°
2026-05-06 13:15 24.92148 67.38786 2994 ft 213 kts 340°
2026-05-06 13:15 24.93533 67.38351 2975 ft 201 kts 331°
2026-05-06 13:15 24.94566 67.37475 2989 ft 183 kts 299°
2026-05-06 13:16 24.94974 67.36244 2976 ft 166 kts 264°
2026-05-06 13:16 24.94890 67.34957 3020 ft 174 kts 261°
2026-05-06 13:16 24.94730 67.33637 2880 ft 175 kts 259°
2026-05-06 13:16 24.94551 67.32341 2665 ft 167 kts 257°
2026-05-06 13:17 24.94310 67.31132 2470 ft 156 kts 253°
2026-05-06 13:17 24.94039 67.29996 2292 ft 150 kts 253°
2026-05-06 13:17 24.93765 67.28899 2106 ft 148 kts 254°
2026-05-06 13:17 24.93490 67.27805 1905 ft 147 kts 253°
2026-05-06 13:18 24.93217 67.26726 1726 ft 149 kts 253°
2026-05-06 13:18 24.92940 67.25633 1539 ft 150 kts 254°
2026-05-06 13:18 24.92665 67.24543 1361 ft 145 kts 255°
2026-05-06 13:18 24.92398 67.23488 1173 ft 142 kts 255°
2026-05-06 13:19 24.92124 67.22409 983 ft 150 kts 255°
2026-05-06 13:19 24.91856 67.21344 799 ft 140 kts 253°
2026-05-06 13:19 24.91592 67.20312 507 ft 145 kts 251°
2026-05-06 13:19 24.91299 67.19257 321 ft 143 kts 253°
2026-05-06 13:20 24.91037 67.18170 232 ft 148 kts 255°
2026-05-06 13:20 24.90773 67.17082 116 ft 143 kts 253°
2026-05-06 13:20 24.90537 67.16154 109 ft 102 kts 253°
2026-05-06 13:20 24.90405 67.15625 109 ft 56 kts 254°
2026-05-06 13:21 24.90327 67.15327 109 ft 21 kts 254°
2026-05-06 13:21 24.90322 67.15308 109 ft 0 kts 254°